EAG5512 ROAH-VHHH

Flight info

Callsign EAG5512
Flight time 2h 5m
Altitude 36000
Route GANJU Y576 LILRA Y573 SEDKU R595 APU A1 ELATO V522 ABBEY
Aircraft A346/H-SDE2E3FGHIJ3J4J5M1RWXY/LB1D1

Departure

Time 2026-05-06 21:39
Airport Naha International Airport (ROAH)

Arrival

Time 2026-05-06 23:44
Airport Hong Kong International Airport (VHHH)
Time Latitude Longitude Altitude Speed Heading
2026-05-06 21:23 26.21006 127.64957 30 ft 0 kts 87°
2026-05-06 21:31 26.21006 127.64950 30 ft 4 kts 87°
2026-05-06 21:31 26.21004 127.64924 29 ft 3 kts 88°
2026-05-06 21:31 26.21007 127.64900 28 ft 4 kts 116°
2026-05-06 21:32 26.21017 127.64887 28 ft 4 kts 158°
2026-05-06 21:32 26.21063 127.64882 29 ft 0 kts 178°
2026-05-06 21:35 26.21058 127.64882 29 ft 2 kts 178°
2026-05-06 21:35 26.21029 127.64884 28 ft 6 kts 178°
2026-05-06 21:35 26.21007 127.64885 28 ft 6 kts 178°
2026-05-06 21:35 26.20960 127.64878 28 ft 7 kts 214°
2026-05-06 21:36 26.20920 127.64832 28 ft 9 kts 249°
2026-05-06 21:36 26.20926 127.64754 26 ft 11 kts 307°
2026-05-06 21:36 26.20975 127.64671 28 ft 14 kts 281°
2026-05-06 21:36 26.20976 127.64651 25 ft 0 kts 271°
2026-05-06 21:37 26.20976 127.64632 27 ft 7 kts 265°
2026-05-06 21:37 26.20957 127.64561 25 ft 11 kts 240°
2026-05-06 21:38 26.20890 127.64527 30 ft 12 kts 181°
2026-05-06 21:38 26.20717 127.64534 27 ft 61 kts 177°
2026-05-06 21:38 26.19983 127.64569 27 ft 146 kts 178°
2026-05-06 21:38 26.18741 127.64616 210 ft 201 kts 179°
2026-05-06 21:39 26.17301 127.64653 1106 ft 209 kts 177°
2026-05-06 21:39 26.15866 127.64722 2325 ft 201 kts 176°
2026-05-06 21:39 26.14448 127.64797 2993 ft 210 kts 176°
2026-05-06 21:39 26.12928 127.64835 3451 ft 227 kts 185°
2026-05-06 21:40 26.11467 127.64085 3800 ft 250 kts 225°
2026-05-06 21:40 26.10606 127.62344 4219 ft 268 kts 255°
2026-05-06 21:40 26.10454 127.61657 4437 ft 272 kts 258°
2026-05-06 21:40 26.10083 127.59558 5288 ft 275 kts 258°
2026-05-06 21:41 26.09697 127.57454 6142 ft 279 kts 257°
2026-05-06 21:41 26.09256 127.55338 6953 ft 282 kts 254°
2026-05-06 21:41 26.08762 127.53214 7807 ft 283 kts 253°
2026-05-06 21:41 26.08238 127.51096 8674 ft 284 kts 253°
2026-05-06 21:42 26.07694 127.48977 9506 ft 285 kts 253°
2026-05-06 21:42 26.07139 127.46847 10295 ft 287 kts 254°
2026-05-06 21:42 26.06566 127.44666 10859 ft 300 kts 255°
2026-05-06 21:42 26.05965 127.42372 11229 ft 318 kts 255°
2026-05-06 21:43 26.05327 127.39938 11578 ft 336 kts 255°
2026-05-06 21:43 26.04654 127.37380 11914 ft 354 kts 255°
2026-05-06 21:43 26.03942 127.34682 12228 ft 371 kts 255°
2026-05-06 21:43 26.03191 127.31846 12717 ft 382 kts 255°
2026-05-06 21:44 26.02442 127.29030 13439 ft 385 kts 255°
2026-05-06 21:44 26.01677 127.26158 14180 ft 389 kts 255°
2026-05-06 21:44 26.00902 127.23251 14840 ft 393 kts 256°
2026-05-06 21:44 26.00119 127.20316 15486 ft 398 kts 256°
2026-05-06 21:45 25.99329 127.17349 16117 ft 402 kts 256°
2026-05-06 21:45 25.98532 127.14358 16751 ft 405 kts 256°
2026-05-06 21:45 25.97722 127.11331 17348 ft 409 kts 256°
2026-05-06 21:45 25.96906 127.08282 17932 ft 413 kts 256°
2026-05-06 21:46 25.96081 127.05202 18491 ft 417 kts 256°
2026-05-06 21:46 25.95249 127.02100 19031 ft 420 kts 256°
2026-05-06 21:46 25.94411 126.98975 19586 ft 423 kts 256°
2026-05-06 21:46 25.93576 126.95865 20108 ft 426 kts 256°
2026-05-06 21:47 25.92719 126.92679 20640 ft 429 kts 256°
2026-05-06 21:47 25.91858 126.89480 21150 ft 432 kts 256°
2026-05-06 21:47 25.90991 126.86265 21648 ft 435 kts 256°
2026-05-06 21:47 25.90116 126.83025 22134 ft 438 kts 256°
2026-05-06 21:48 25.89235 126.79765 22595 ft 441 kts 256°
2026-05-06 21:48 25.88323 126.76489 23058 ft 445 kts 255°
2026-05-06 21:48 25.87246 126.73249 23505 ft 449 kts 251°
2026-05-06 21:48 25.85959 126.70056 23928 ft 454 kts 247°
2026-05-06 21:49 25.84471 126.66945 24355 ft 458 kts 244°
2026-05-06 21:49 25.82890 126.63842 24783 ft 461 kts 244°
2026-05-06 21:49 25.81294 126.60739 25220 ft 463 kts 244°
2026-05-06 21:49 25.79709 126.57667 25667 ft 465 kts 244°
2026-05-06 21:50 25.78099 126.54543 26116 ft 467 kts 244°
2026-05-06 21:50 25.76481 126.51402 26563 ft 468 kts 244°
2026-05-06 21:50 25.74860 126.48257 26998 ft 470 kts 244°
2026-05-06 21:50 25.73232 126.45099 27420 ft 472 kts 244°
2026-05-06 21:51 25.71598 126.41929 27847 ft 473 kts 244°
2026-05-06 21:51 25.69959 126.38751 28284 ft 475 kts 244°
2026-05-06 21:51 25.68315 126.35565 28755 ft 475 kts 244°
2026-05-06 21:51 25.66675 126.32393 29402 ft 471 kts 244°
2026-05-06 21:52 25.65049 126.29251 30089 ft 467 kts 244°
2026-05-06 21:52 25.63436 126.26135 30763 ft 463 kts 244°
2026-05-06 21:52 25.61859 126.23085 31358 ft 461 kts 244°
2026-05-06 21:52 25.60263 126.20001 31879 ft 460 kts 244°
2026-05-06 21:53 25.58673 126.16927 32381 ft 460 kts 244°
2026-05-06 21:53 25.57059 126.13813 32906 ft 459 kts 244°
2026-05-06 21:53 25.55487 126.10782 33419 ft 458 kts 244°
2026-05-06 21:53 25.53898 126.07722 33923 ft 457 kts 244°
2026-05-06 21:54 25.52312 126.04669 34415 ft 457 kts 244°
2026-05-06 21:54 25.50719 126.01608 34843 ft 458 kts 244°
2026-05-06 21:54 25.49130 125.98554 35235 ft 459 kts 244°
2026-05-06 21:54 25.47533 125.95488 35631 ft 459 kts 244°
2026-05-06 21:55 25.45933 125.92420 35943 ft 461 kts 244°
2026-05-06 21:55 25.44318 125.89325 35966 ft 467 kts 244°
2026-05-06 21:55 25.41043 125.83050 35977 ft 472 kts 244°
2026-05-06 21:56 25.37747 125.76751 35975 ft 473 kts 243°
2026-05-06 21:56 25.34443 125.70451 35975 ft 472 kts 243°
2026-05-06 21:57 25.31126 125.64215 35975 ft 472 kts 243°
2026-05-06 21:57 25.27782 125.57949 35975 ft 473 kts 243°
2026-05-06 21:58 25.24433 125.51680 35975 ft 473 kts 243°
2026-05-06 21:58 25.21086 125.45424 35975 ft 473 kts 243°
2026-05-06 21:59 25.17732 125.39162 35975 ft 473 kts 243°
2026-05-06 21:59 25.14383 125.32920 35975 ft 472 kts 243°
2026-05-06 22:00 25.11007 125.26695 35970 ft 473 kts 241°
2026-05-06 22:00 25.07243 125.20758 35967 ft 475 kts 237°
2026-05-06 22:01 25.03272 125.14907 35966 ft 475 kts 237°
2026-05-06 22:01 24.99267 125.09091 35966 ft 476 kts 235°
2026-05-06 22:02 24.95075 125.03420 35966 ft 477 kts 234°
2026-05-06 22:02 24.90876 124.97762 35966 ft 476 kts 234°
2026-05-06 22:03 24.87293 124.91739 35964 ft 469 kts 247°
2026-05-06 22:03 24.85094 124.85016 35966 ft 464 kts 259°
2026-05-06 22:04 24.84348 124.77987 35966 ft 461 kts 271°
2026-05-06 22:04 24.84911 124.70958 35968 ft 459 kts 278°
2026-05-06 22:05 24.85748 124.64019 35967 ft 459 kts 278°
2026-05-06 22:05 24.86596 124.57033 35967 ft 459 kts 278°
2026-05-06 22:06 24.87437 124.50040 35966 ft 459 kts 278°
2026-05-06 22:06 24.88272 124.43054 35966 ft 459 kts 278°
2026-05-06 22:07 24.89104 124.36066 35966 ft 459 kts 278°
2026-05-06 22:07 24.89934 124.29070 35962 ft 459 kts 278°
2026-05-06 22:08 24.90760 124.22075 35958 ft 459 kts 278°
2026-05-06 22:08 24.91576 124.15127 35957 ft 459 kts 278°
2026-05-06 22:09 24.92394 124.08125 35949 ft 459 kts 278°
2026-05-06 22:09 24.93208 124.01124 35948 ft 460 kts 278°
2026-05-06 22:10 24.93983 123.94118 35948 ft 460 kts 277°
2026-05-06 22:10 24.94727 123.87083 35948 ft 461 kts 277°
2026-05-06 22:11 24.95467 123.80059 35948 ft 461 kts 277°
2026-05-06 22:11 24.96199 123.73082 35948 ft 461 kts 277°
2026-05-06 22:12 24.96935 123.66051 35948 ft 461 kts 277°
2026-05-06 22:12 24.97668 123.59020 35948 ft 461 kts 277°
2026-05-06 22:13 24.98397 123.51986 35948 ft 460 kts 277°
2026-05-06 22:13 24.99122 123.44956 35947 ft 461 kts 277°
2026-05-06 22:14 24.99840 123.37959 35948 ft 461 kts 277°
2026-05-06 22:14 25.00558 123.30917 35948 ft 461 kts 277°
2026-05-06 22:15 25.01272 123.23872 35961 ft 462 kts 277°
2026-05-06 22:15 25.01986 123.16822 35965 ft 462 kts 277°
2026-05-06 22:16 25.02696 123.09778 35966 ft 462 kts 277°
2026-05-06 22:16 25.03400 123.02724 35966 ft 462 kts 277°
2026-05-06 22:17 25.04106 122.95676 35966 ft 462 kts 277°
2026-05-06 22:17 25.04809 122.88671 35973 ft 462 kts 277°
2026-05-06 22:18 25.05509 122.81624 35975 ft 462 kts 277°
2026-05-06 22:18 25.06091 122.75720 35975 ft 462 kts 277°
2026-05-06 22:19 25.06896 122.67517 35976 ft 462 kts 277°
2026-05-06 22:19 25.07474 122.61602 35975 ft 462 kts 277°
2026-05-06 22:20 25.08155 122.54593 35968 ft 462 kts 277°
2026-05-06 22:20 25.08835 122.47538 35967 ft 462 kts 277°
2026-05-06 22:21 25.09512 122.40477 35972 ft 462 kts 277°
2026-05-06 22:21 25.10187 122.33412 35975 ft 462 kts 277°
2026-05-06 22:22 25.10853 122.26345 35976 ft 462 kts 276°
2026-05-06 22:22 25.11447 122.19274 35976 ft 462 kts 276°
2026-05-06 22:23 25.12028 122.12249 35976 ft 462 kts 276°
2026-05-06 22:23 25.12617 122.05176 35976 ft 462 kts 276°
2026-05-06 22:24 25.13230 121.98115 35975 ft 462 kts 276°
2026-05-06 22:24 25.13926 121.91056 35975 ft 462 kts 277°
2026-05-06 22:25 25.14627 121.83995 35976 ft 462 kts 277°
2026-05-06 22:25 25.15317 121.76933 35968 ft 462 kts 277°
2026-05-06 22:26 25.15997 121.69871 35966 ft 462 kts 277°
2026-05-06 22:26 25.16559 121.62801 35963 ft 462 kts 271°
2026-05-06 22:27 25.15907 121.55725 35963 ft 465 kts 259°
2026-05-06 22:27 25.13825 121.48945 35964 ft 469 kts 247°
2026-05-06 22:28 25.10397 121.42824 35966 ft 475 kts 235°
2026-05-06 22:28 25.06108 121.37181 35967 ft 476 kts 233°
2026-05-06 22:29 25.01787 121.31614 35964 ft 476 kts 233°
2026-05-06 22:29 24.97481 121.26057 35966 ft 476 kts 233°
2026-05-06 22:30 24.93200 121.20531 35966 ft 476 kts 233°
2026-05-06 22:30 24.88864 121.14939 35972 ft 476 kts 233°
2026-05-06 22:31 24.84581 121.09421 35974 ft 476 kts 233°
2026-05-06 22:31 24.80273 121.03870 35974 ft 476 kts 233°
2026-05-06 22:32 24.75960 120.98317 35975 ft 476 kts 233°
2026-05-06 22:32 24.71638 120.92766 35978 ft 476 kts 233°
2026-05-06 22:33 24.67346 120.87260 35983 ft 476 kts 233°
2026-05-06 22:33 24.63028 120.81731 35983 ft 476 kts 233°
2026-05-06 22:34 24.58708 120.76205 35988 ft 476 kts 232°
2026-05-06 22:34 24.54270 120.70760 35995 ft 478 kts 230°
2026-05-06 22:35 24.49665 120.65491 35994 ft 478 kts 229°
2026-05-06 22:35 24.45052 120.60227 35991 ft 478 kts 229°
2026-05-06 22:36 24.40435 120.54968 35997 ft 478 kts 229°
2026-05-06 22:36 24.35821 120.49718 35998 ft 477 kts 229°
2026-05-06 22:37 24.31201 120.44469 35994 ft 478 kts 229°
2026-05-06 22:37 24.26580 120.39226 35992 ft 478 kts 229°
2026-05-06 22:38 24.21987 120.34014 35998 ft 478 kts 229°
2026-05-06 22:38 24.17362 120.28760 35994 ft 478 kts 229°
2026-05-06 22:39 24.12727 120.23509 35996 ft 478 kts 229°
2026-05-06 22:39 24.08097 120.18274 35989 ft 478 kts 229°
2026-05-06 22:40 24.03461 120.13042 35994 ft 478 kts 229°
2026-05-06 22:40 23.98830 120.07817 35993 ft 478 kts 229°
2026-05-06 22:41 23.91878 119.99976 35989 ft 478 kts 229°
2026-05-06 22:42 23.87274 119.94796 35994 ft 478 kts 229°
2026-05-06 22:42 23.82629 119.89577 35995 ft 478 kts 229°
2026-05-06 22:43 23.77988 119.84369 35992 ft 478 kts 229°
2026-05-06 22:43 23.73335 119.79156 35995 ft 478 kts 229°
2026-05-06 22:44 23.68676 119.73940 35996 ft 479 kts 229°
2026-05-06 22:44 23.64020 119.68726 35995 ft 479 kts 230°
2026-05-06 22:45 23.59698 119.63271 35991 ft 476 kts 235°
2026-05-06 22:45 23.55858 119.57345 35993 ft 474 kts 240°
2026-05-06 22:46 23.52346 119.51291 35993 ft 474 kts 240°
2026-05-06 22:46 23.48816 119.45199 35991 ft 475 kts 240°
2026-05-06 22:47 23.45271 119.39094 35992 ft 475 kts 240°
2026-05-06 22:47 23.41728 119.33001 35994 ft 476 kts 240°
2026-05-06 22:48 23.38179 119.26906 35997 ft 476 kts 240°
2026-05-06 22:48 23.34628 119.20812 35995 ft 476 kts 240°
2026-05-06 22:49 23.31091 119.14750 35996 ft 476 kts 240°
2026-05-06 22:49 23.27527 119.08650 35992 ft 477 kts 240°
2026-05-06 22:50 23.23956 119.02545 35992 ft 477 kts 240°
2026-05-06 22:50 23.20389 118.96454 35990 ft 478 kts 240°
2026-05-06 22:51 23.16818 118.90365 35992 ft 478 kts 240°
2026-05-06 22:51 23.13256 118.84298 35996 ft 478 kts 240°
2026-05-06 22:52 23.09667 118.78193 35994 ft 478 kts 240°
2026-05-06 22:52 23.06082 118.72102 35991 ft 478 kts 240°
2026-05-06 22:53 23.02490 118.66008 35994 ft 478 kts 240°
2026-05-06 22:53 22.98895 118.59918 35990 ft 479 kts 240°
2026-05-06 22:54 22.95296 118.53826 35991 ft 479 kts 240°
2026-05-06 22:54 22.91704 118.47769 35998 ft 479 kts 240°
2026-05-06 22:55 22.88092 118.41698 35991 ft 479 kts 240°
2026-05-06 22:55 22.84467 118.35615 35995 ft 480 kts 240°
2026-05-06 22:56 22.80831 118.29521 35989 ft 480 kts 240°
2026-05-06 22:56 22.77191 118.23428 35995 ft 480 kts 240°
2026-05-06 22:57 22.73550 118.17341 35996 ft 480 kts 240°
2026-05-06 22:57 22.69903 118.11252 35991 ft 481 kts 240°
2026-05-06 22:58 22.66255 118.05169 35997 ft 481 kts 240°
2026-05-06 22:58 22.62630 117.99134 35991 ft 481 kts 240°
2026-05-06 22:59 22.58981 117.93044 35996 ft 481 kts 240°
2026-05-06 22:59 22.55360 117.86935 35992 ft 482 kts 240°
2026-05-06 23:00 22.51730 117.80823 35989 ft 482 kts 240°
2026-05-06 23:00 22.48088 117.74705 35997 ft 482 kts 240°
2026-05-06 23:01 22.44451 117.68608 35991 ft 482 kts 240°
2026-05-06 23:01 22.40805 117.62504 35994 ft 482 kts 240°
2026-05-06 23:02 22.37441 117.56297 35992 ft 479 kts 246°
2026-05-06 23:02 22.34992 117.49632 35991 ft 476 kts 255°
2026-05-06 23:03 22.33540 117.42673 35996 ft 473 kts 263°
2026-05-06 23:03 22.33101 117.36734 35997 ft 472 kts 270°
2026-05-06 23:04 22.32939 117.28581 35992 ft 462 kts 270°
2026-05-06 23:04 22.32838 117.22813 35991 ft 461 kts 270°
2026-05-06 23:05 22.32712 117.15884 35993 ft 461 kts 270°
2026-05-06 23:05 22.32580 117.08960 35995 ft 461 kts 270°
2026-05-06 23:06 22.32444 117.02032 35992 ft 461 kts 270°
2026-05-06 23:06 22.32304 116.95084 35997 ft 461 kts 270°
2026-05-06 23:07 22.32162 116.88157 35992 ft 461 kts 270°
2026-05-06 23:07 22.32016 116.81228 35997 ft 461 kts 270°
2026-05-06 23:08 22.31868 116.74299 35992 ft 461 kts 270°
2026-05-06 23:08 22.31716 116.67366 35994 ft 461 kts 270°
2026-05-06 23:09 22.31562 116.60435 35989 ft 461 kts 270°
2026-05-06 23:09 22.31406 116.53551 35985 ft 461 kts 270°
2026-05-06 23:10 22.31244 116.46573 35985 ft 461 kts 270°
2026-05-06 23:10 22.31081 116.39678 35886 ft 461 kts 270°
2026-05-06 23:10 22.30998 116.36205 35626 ft 459 kts 270°
2026-05-06 23:11 22.30915 116.32760 35375 ft 457 kts 270°
2026-05-06 23:11 22.30831 116.29328 35112 ft 456 kts 270°
2026-05-06 23:11 22.30747 116.25911 34748 ft 454 kts 270°
2026-05-06 23:11 22.30662 116.22492 34251 ft 454 kts 270°
2026-05-06 23:12 22.30576 116.19077 33658 ft 455 kts 270°
2026-05-06 23:12 22.30490 116.15658 33022 ft 455 kts 270°
2026-05-06 23:12 22.30404 116.12233 32325 ft 457 kts 270°
2026-05-06 23:12 22.30315 116.08783 31630 ft 458 kts 270°
2026-05-06 23:13 22.30227 116.05325 30898 ft 460 kts 270°
2026-05-06 23:13 22.30136 116.01851 30075 ft 464 kts 270°
2026-05-06 23:13 22.30045 115.98343 29191 ft 469 kts 269°
2026-05-06 23:13 22.29953 115.94840 28367 ft 472 kts 269°
2026-05-06 23:14 22.29858 115.91288 27716 ft 471 kts 269°
2026-05-06 23:14 22.29761 115.87758 27276 ft 469 kts 269°
2026-05-06 23:14 22.29665 115.84251 26798 ft 464 kts 269°
2026-05-06 23:14 22.29570 115.80773 26351 ft 459 kts 269°
2026-05-06 23:15 22.29480 115.77327 25838 ft 454 kts 268°
2026-05-06 23:15 22.29391 115.73931 25330 ft 450 kts 268°
2026-05-06 23:15 22.29302 115.70600 24814 ft 445 kts 268°
2026-05-06 23:15 22.29214 115.67274 24340 ft 440 kts 268°
2026-05-06 23:16 22.29128 115.63980 23887 ft 434 kts 268°
2026-05-06 23:16 22.29041 115.60735 23453 ft 429 kts 268°
2026-05-06 23:16 22.28952 115.57519 23002 ft 423 kts 268°
2026-05-06 23:16 22.28863 115.54355 22550 ft 419 kts 268°
2026-05-06 23:17 22.28775 115.51222 22100 ft 415 kts 268°
2026-05-06 23:17 22.28688 115.48159 21663 ft 411 kts 268°
2026-05-06 23:17 22.28600 115.45082 21211 ft 407 kts 268°
2026-05-06 23:17 22.28513 115.42041 20766 ft 404 kts 268°
2026-05-06 23:18 22.28425 115.39017 20327 ft 400 kts 268°
2026-05-06 23:18 22.28338 115.36021 19891 ft 397 kts 268°
2026-05-06 23:18 22.28251 115.33048 19447 ft 394 kts 268°
2026-05-06 23:18 22.28165 115.30102 19010 ft 390 kts 267°
2026-05-06 23:19 22.28077 115.27179 18578 ft 387 kts 267°
2026-05-06 23:19 22.27989 115.24277 18147 ft 385 kts 267°
2026-05-06 23:19 22.27900 115.21388 17707 ft 382 kts 267°
2026-05-06 23:19 22.27811 115.18519 17273 ft 380 kts 267°
2026-05-06 23:20 22.27722 115.15670 16838 ft 378 kts 267°
2026-05-06 23:20 22.27634 115.12875 16412 ft 375 kts 267°
2026-05-06 23:20 22.27546 115.10089 15991 ft 373 kts 267°
2026-05-06 23:20 22.27454 115.07213 15533 ft 371 kts 267°
2026-05-06 23:21 22.27364 115.04434 15110 ft 369 kts 267°
2026-05-06 23:21 22.27275 115.01662 14682 ft 367 kts 267°
2026-05-06 23:21 22.27185 114.98913 14253 ft 365 kts 267°
2026-05-06 23:21 22.27096 114.96174 13807 ft 363 kts 267°
2026-05-06 23:22 22.27007 114.93453 13396 ft 361 kts 267°
2026-05-06 23:22 22.26919 114.90746 12970 ft 359 kts 267°
2026-05-06 23:22 22.26831 114.88053 12545 ft 357 kts 267°
2026-05-06 23:22 22.26742 114.85379 12115 ft 355 kts 267°
2026-05-06 23:23 22.26654 114.82724 11685 ft 352 kts 267°
2026-05-06 23:23 22.26447 114.80127 11241 ft 350 kts 257°
2026-05-06 23:23 22.25582 114.77678 10825 ft 354 kts 240°
2026-05-06 23:23 22.24020 114.75543 10780 ft 368 kts 225°
2026-05-06 23:24 22.22159 114.73611 10815 ft 372 kts 224°
2026-05-06 23:24 22.20274 114.71692 10836 ft 373 kts 224°
2026-05-06 23:24 22.18395 114.69779 10903 ft 364 kts 224°
2026-05-06 23:24 22.16587 114.67936 10747 ft 350 kts 224°
2026-05-06 23:25 22.14852 114.66160 10601 ft 337 kts 224°
2026-05-06 23:25 22.13183 114.64449 10463 ft 325 kts 224°
2026-05-06 23:25 22.11573 114.62798 10334 ft 312 kts 224°
2026-05-06 23:25 22.10030 114.61215 10224 ft 300 kts 224°
2026-05-06 23:26 22.08547 114.59695 10123 ft 288 kts 224°
2026-05-06 23:26 22.07120 114.58232 10029 ft 277 kts 224°
2026-05-06 23:26 22.05733 114.56810 9784 ft 275 kts 224°
2026-05-06 23:26 22.04367 114.55409 9456 ft 274 kts 223°
2026-05-06 23:27 22.03017 114.53964 9132 ft 273 kts 229°
2026-05-06 23:27 22.01938 114.52279 8864 ft 277 kts 241°
2026-05-06 23:27 22.01123 114.50339 8895 ft 284 kts 246°
2026-05-06 23:27 22.00366 114.48358 8925 ft 285 kts 246°
2026-05-06 23:28 21.99619 114.46381 8950 ft 285 kts 246°
2026-05-06 23:28 21.98866 114.44393 8975 ft 287 kts 246°
2026-05-06 23:28 21.98109 114.42404 8986 ft 287 kts 246°
2026-05-06 23:28 21.97349 114.40412 8991 ft 287 kts 246°
2026-05-06 23:29 21.96587 114.38420 8992 ft 287 kts 246°
2026-05-06 23:29 21.95827 114.36433 8995 ft 286 kts 246°
2026-05-06 23:29 21.95066 114.34446 8994 ft 286 kts 246°
2026-05-06 23:29 21.94304 114.32462 8993 ft 286 kts 246°
2026-05-06 23:30 21.93544 114.30481 8995 ft 286 kts 246°
2026-05-06 23:30 21.92781 114.28496 8993 ft 286 kts 246°
2026-05-06 23:30 21.92021 114.26516 8995 ft 286 kts 246°
2026-05-06 23:30 21.91264 114.24548 8994 ft 286 kts 246°
2026-05-06 23:31 21.90496 114.22552 8996 ft 286 kts 246°
2026-05-06 23:31 21.89834 114.20530 8974 ft 287 kts 259°
2026-05-06 23:31 21.89869 114.18379 8974 ft 291 kts 282°
2026-05-06 23:31 21.90645 114.16361 9001 ft 293 kts 296°
2026-05-06 23:32 21.91644 114.14442 9001 ft 294 kts 297°
2026-05-06 23:32 21.92658 114.12529 8995 ft 293 kts 297°
2026-05-06 23:32 21.93667 114.10615 8992 ft 293 kts 297°
2026-05-06 23:32 21.94671 114.08696 8819 ft 294 kts 297°
2026-05-06 23:33 21.95671 114.06773 8430 ft 293 kts 297°
2026-05-06 23:33 21.96660 114.04866 8077 ft 289 kts 297°
2026-05-06 23:33 21.97636 114.02982 7749 ft 286 kts 297°
2026-05-06 23:33 21.98599 114.01117 7435 ft 282 kts 297°
2026-05-06 23:34 21.99547 113.99281 7121 ft 279 kts 297°
2026-05-06 23:34 22.00487 113.97459 6823 ft 276 kts 297°
2026-05-06 23:34 22.01405 113.95676 6527 ft 274 kts 297°
2026-05-06 23:34 22.02329 113.93884 6230 ft 273 kts 297°
2026-05-06 23:35 22.03247 113.92101 5929 ft 271 kts 297°
2026-05-06 23:35 22.04160 113.90328 5639 ft 269 kts 297°
2026-05-06 23:35 22.05066 113.88564 5352 ft 268 kts 297°
2026-05-06 23:35 22.05968 113.86809 5058 ft 267 kts 297°
2026-05-06 23:36 22.06868 113.85058 4778 ft 266 kts 297°
2026-05-06 23:36 22.07764 113.83316 4498 ft 265 kts 298°
2026-05-06 23:36 22.08658 113.81577 4214 ft 264 kts 298°
2026-05-06 23:36 22.09551 113.79839 3934 ft 264 kts 298°
2026-05-06 23:37 22.10522 113.78158 3627 ft 265 kts 311°
2026-05-06 23:37 22.11942 113.76913 3340 ft 264 kts 332°
2026-05-06 23:37 22.13587 113.76056 3091 ft 262 kts 337°
2026-05-06 23:37 22.15233 113.75271 2935 ft 253 kts 338°
2026-05-06 23:38 22.16801 113.74521 2931 ft 239 kts 337°
2026-05-06 23:38 22.18247 113.73816 2971 ft 221 kts 337°
2026-05-06 23:38 22.19586 113.73156 2936 ft 202 kts 337°
2026-05-06 23:38 22.20830 113.72594 2789 ft 186 kts 352°
2026-05-06 23:39 22.22019 113.72737 2612 ft 164 kts 30°
2026-05-06 23:39 22.22971 113.73357 2519 ft 158 kts 36°
2026-05-06 23:39 22.23880 113.74019 2321 ft 157 kts 37°
2026-05-06 23:39 22.24781 113.74677 2105 ft 156 kts 37°
2026-05-06 23:40 22.25680 113.75325 1890 ft 155 kts 36°
2026-05-06 23:40 22.26453 113.76104 1695 ft 151 kts 58°
2026-05-06 23:40 22.26946 113.77097 1599 ft 150 kts 68°
2026-05-06 23:40 22.27348 113.78150 1600 ft 150 kts 70°
2026-05-06 23:41 22.27710 113.79211 1595 ft 150 kts 72°
2026-05-06 23:41 22.28049 113.80258 1592 ft 150 kts 72°
2026-05-06 23:41 22.28389 113.81327 1594 ft 150 kts 72°
2026-05-06 23:41 22.28727 113.82394 1484 ft 150 kts 72°
2026-05-06 23:42 22.29066 113.83459 1282 ft 149 kts 72°
2026-05-06 23:42 22.29404 113.84518 1085 ft 149 kts 72°
2026-05-06 23:42 22.29742 113.85574 887 ft 148 kts 72°
2026-05-06 23:42 22.30080 113.86635 648 ft 148 kts 72°
2026-05-06 23:43 22.30414 113.87686 460 ft 148 kts 72°
2026-05-06 23:43 22.30748 113.88745 296 ft 148 kts 71°
2026-05-06 23:43 22.31096 113.89800 73 ft 148 kts 71°
2026-05-06 23:43 22.31391 113.90731 40 ft 105 kts 73°
2026-05-06 23:44 22.31517 113.91138 40 ft 0 kts 79°
2026-05-06 23:44 22.31516 113.91136 40 ft 0 kts 86°
2026-05-06 23:44 22.31546 113.91208 40 ft 10 kts 66°
2026-05-06 23:45 22.31581 113.91315 40 ft 22 kts 72°
2026-05-06 23:45 22.31633 113.91486 41 ft 24 kts 73°
2026-05-06 23:45 22.31652 113.91653 41 ft 14 kts 93°
2026-05-06 23:45 22.31636 113.91767 41 ft 15 kts 103°
2026-05-06 23:46 22.31598 113.91827 41 ft 0 kts 148°
2026-05-06 23:46 22.31583 113.91835 41 ft 1 kts 157°
2026-05-06 23:46 22.31560 113.91844 41 ft 5 kts 160°
2026-05-06 23:46 22.31513 113.91861 41 ft 9 kts 160°
2026-05-06 23:47 22.31458 113.91883 40 ft 0 kts 159°
2026-05-06 23:47 22.31450 113.91886 39 ft 3 kts 159°
2026-05-06 23:47 22.31420 113.91899 41 ft 6 kts 161°
2026-05-06 23:47 22.31380 113.91881 41 ft 8 kts 227°
2026-05-06 23:48 22.31349 113.91818 41 ft 10 kts 251°
2026-05-06 23:48 22.31340 113.91790 41 ft 1 kts 251°
2026-05-06 23:48 22.31334 113.91771 41 ft 4 kts 251°
2026-05-06 23:48 22.31330 113.91759 40 ft 3 kts 251°
2026-05-06 23:49 22.31328 113.91750 41 ft 0 kts 251°